Weather History for Belize, Belize

Change the Weather History Date:

Tuesday, January 7, 2014

  Actual Average Record
Temperature  
Mean Temperature 66 °F -  
Max Temperature 70 °F - 87 °F (2005)
Min Temperature 63 °F - 59 °F (2001)
Cooling Degree Days 2    
Growing Degree Days 16 (Base 50)    
Moisture  
Dew Point 62 °F    
Average Humidity 81    
Maximum Humidity 94    
Minimum Humidity 69    
Precipitation  
Precipitation 0.03 in 0.16 in - ()
Sea Level Pressure  
Sea Level Pressure 30.16 in    
Wind  
Wind Speed 12 mph ()    
Max Wind Speed 16 mph    
Max Gust Speed -    
Visibility 7.3 miles    
Events Rain    
Averages and records for this station are not official NWS values.
T = Trace of Precipitation, MM = Missing Value Source: Averaged Metar Reports

Daily Weather History Graph

Daily Weather History Graph

Search for Another Location

Airport:

Trip Planner

Search our weather history database for the weather conditions in past years. The results will help you decide how hot, cold, wet, or windy it might be!

Date:

Astronomy

Jan. 07, 2014 Rise Set
Actual Time 6:25 AM CST 5:33 PM CST
Civil Twilight 6:02 AM CST 5:57 PM CST
Nautical Twilight 5:35 AM CST 6:24 PM CST
Astronomical Twilight 5:08 AM CST 6:50 PM CST
Moon 11:17 AM CST (1/7) No Moon Set
Length of Visible Light 11h 55m
Length of Day
11h 08m
Waxing Crescent, 46% of the Moon is Illuminated
Jan 7
Waxing Crescent
Jan 7
First Quarter
Jan 15
Full
Jan 23
Last Quarter
Jan 30
New

Hourly Weather History & Observations

Time (CST) Temp. Dew Point Humidity Pressure Visibility Wind Dir Wind Speed Gust Speed Precip Events Conditions
12:00 AM 71 °F 66 °F 80% 30.12 in 12 mi North 15.0 mph - -   Partly Cloudy
3:00 AM 69 °F 62 °F 73% 30.14 in 12 mi North 16.1 mph - -   Mostly Cloudy
5:00 AM 64.4 °F 62.6 °F 94% 30.15 in 3.1 mi NNW 16.1 mph - N/A Rain Light Rain
6:00 AM 64 °F 62 °F 92% 30.17 in 3 mi NNW 12.7 mph - - Rain Light Rain
6:00 AM 64.4 °F 62.6 °F 94% 30.15 in 3.1 mi NNW 12.7 mph - N/A Rain Light Rain
6:25 AM 64.4 °F 62.6 °F 94% 30.15 in 3.1 mi NNW 12.7 mph - N/A Rain Light Rain
7:00 AM 64.4 °F 62.6 °F 94% 30.18 in 4.3 mi NNW 12.7 mph - N/A Rain Light Rain
8:00 AM 64.4 °F 60.8 °F 88% 30.18 in 6.2 mi NNW 11.5 mph - N/A   Mostly Cloudy
9:00 AM 66 °F 61 °F 80% 30.23 in 12 mi NNW 12.7 mph - -   Partly Cloudy
9:00 AM 66.2 °F 60.8 °F 83% 30.23 in 6.2 mi NNW 12.7 mph - N/A   Mostly Cloudy
10:00 AM 68.0 °F 60.8 °F 78% 30.22 in 6.2 mi North 16.1 mph - N/A   Mostly Cloudy
11:00 AM 69.8 °F 62.6 °F 78% 30.19 in 6.2 mi North 15.0 mph - N/A   Mostly Cloudy
12:00 PM 70 °F 62 °F 69% 30.17 in 12 mi NNW 12.7 mph - -   Partly Cloudy
12:00 PM 69.8 °F 62.6 °F 78% 30.17 in 6.2 mi NNW 12.7 mph - N/A   Mostly Cloudy
1:00 PM 69.8 °F 62.6 °F 78% 30.14 in 6.2 mi NNW 12.7 mph - N/A   Mostly Cloudy
2:00 PM 69.8 °F 62.6 °F 78% 30.13 in 6.2 mi NNW 13.8 mph - N/A   Partly Cloudy
3:00 PM 70 °F 62 °F 70% 30.14 in 12 mi NNW 11.5 mph - - Rain Light Rain
3:00 PM 69.8 °F 62.6 °F 78% 30.13 in 6.2 mi NNW 11.5 mph - N/A Rain Light Rain
4:00 PM 68.0 °F 60.8 °F 78% 30.14 in 6.2 mi NNW 16.1 mph - N/A   Overcast
5:00 PM 68.0 °F 60.8 °F 78% 30.16 in 6.2 mi NNW 11.5 mph - N/A   Overcast
6:00 PM 67 °F 60 °F 72% 29.91 in 12 mi NW 13.8 mph - -   Partly Cloudy
6:00 PM 66.2 °F 60.8 °F 83% 30.17 in 6.2 mi NW 13.8 mph - N/A   Overcast
7:00 PM 68.0 °F 60.8 °F 78% 30.19 in 6.2 mi NW 12.7 mph - N/A   Overcast
9:00 PM 67 °F 60 °F 71% 30.23 in 12 mi NNW 13.8 mph - -   Mostly Cloudy